Ludington, MI

1:16 PM EST on November 15, 2019 (GMT -0500)
Mason County

Weather History for KLDM - September, 2019

Change the Weather History Date:

Wednesday, September 4, 2019

  Actual Average Record
Temperature  
Mean Temperature 56 °F -  
Max Temperature 67 °F 75 °F 85 °F (1968)
Min Temperature 46 °F 53 °F 38 °F (1974)
Degree Days  
Heating Degree Days 8    
Growing Degree Days 6 (Base 50)    
Moisture  
Dew Point 51 °F    
Average Humidity 73    
Maximum Humidity 96    
Minimum Humidity 51    
Precipitation  
Precipitation 0.00 in - - ()
Sea Level Pressure  
Sea Level Pressure 30.06 in    
Wind  
Wind Speed 8 mph (NNW)    
Max Wind Speed 14 mph    
Max Gust Speed 25 mph    
Visibility 10 miles    
Events      
Averages and records for this station are not official NWS values.
T = Trace of Precipitation, MM = Missing Value Source: NWS Daily Summary

Daily Weather History Graph

Daily Weather History Graph

Search for Another Location

Airport or City:

Astronomy

Sep. 04, 2019 Rise Set
Actual Time 7:12 AM EDT 8:16 PM EDT
Civil Twilight 6:42 AM EDT 8:45 PM EDT
Nautical Twilight 6:07 AM EDT 9:21 PM EDT
Astronomical Twilight 5:29 AM EDT 9:58 PM EDT
Moon 1:24 PM EDT (9/4) 11:37 PM EDT (9/4)
Length of Visible Light 14h 03m
Length of Day
13h 04m
Waxing Crescent, 34% of the Moon is Illuminated
Sep 4
Waxing Crescent
Sep 5
First Quarter
Sep 14
Full
Sep 21
Last Quarter
Sep 28
New

Hourly Weather History & Observations

Time (EDT) Temp. Dew Point Humidity Pressure Visibility Wind Dir Wind Speed Gust Speed Precip Events Conditions
12:15 AM 67.1 °F 57.4 °F 71% 29.81 in 10.0 mi NW 9.2 mph - N/A   Clear
12:20 AM 66.7 °F 57.7 °F 73% 29.81 in 10.0 mi NW 8.1 mph - N/A   Clear
12:38 AM 66.4 °F 57.6 °F 73% 29.82 in 10.0 mi NNW 10.4 mph - N/A   Clear
12:56 AM 65.5 °F 57.7 °F 76% 29.83 in 10.0 mi North 8.1 mph - N/A   Scattered Clouds
1:15 AM 63.9 °F 58.1 °F 81% 29.84 in 10.0 mi NNW 6.9 mph - N/A   Clear
1:35 AM 63.9 °F 58.1 °F 81% 29.85 in 10.0 mi NNW 6.9 mph - N/A   Scattered Clouds
1:36 AM 63.7 °F 58.1 °F 82% 29.85 in 10.0 mi NNW 6.9 mph - N/A   Scattered Clouds
1:59 AM 64.4 °F 58.3 °F 80% 29.86 in 10.0 mi NNW 10.4 mph 20.7 mph N/A   Overcast
2:17 AM 64.0 °F 58.1 °F 81% 29.87 in 10.0 mi NNW 9.2 mph - N/A   Overcast
2:35 AM 63.7 °F 56.5 °F 77% 29.87 in 10.0 mi NNW 11.5 mph 25.3 mph N/A   Overcast
2:55 AM 63.3 °F 56.8 °F 79% 29.88 in 10.0 mi North 8.1 mph 20.7 mph N/A   Overcast
3:15 AM 62.6 °F 56.3 °F 80% 29.89 in 10.0 mi North 9.2 mph - N/A   Overcast
3:20 AM 62.6 °F 56.3 °F 80% 29.89 in 10.0 mi North 6.9 mph - N/A   Overcast
3:38 AM 61.9 °F 54.7 °F 77% 29.90 in 10.0 mi NNW 10.4 mph - N/A   Overcast
3:56 AM 61.5 °F 54.1 °F 77% 29.90 in 10.0 mi NNW 10.4 mph 16.1 mph N/A   Overcast
4:15 AM 60.8 °F 53.1 °F 76% 29.91 in 10.0 mi NNW 12.7 mph 18.4 mph N/A   Overcast
4:35 AM 59.9 °F 53.1 °F 78% 29.92 in 10.0 mi NNW 11.5 mph 17.3 mph N/A   Overcast
4:59 AM 59.2 °F 52.5 °F 79% 29.93 in 10.0 mi NNW 12.7 mph 17.3 mph N/A   Mostly Cloudy
5:17 AM 58.8 °F 52.2 °F 79% 29.94 in 10.0 mi North 10.4 mph 16.1 mph N/A   Scattered Clouds
5:35 AM 58.5 °F 52.2 °F 80% 29.94 in 10.0 mi NNW 9.2 mph - N/A   Mostly Cloudy
5:55 AM 58.6 °F 52.7 °F 81% 29.96 in 10.0 mi North 6.9 mph 16.1 mph N/A   Mostly Cloudy
6:15 AM 59.0 °F 52.3 °F 79% 29.96 in 10.0 mi North 9.2 mph - N/A   Overcast
6:38 AM 59.0 °F 51.4 °F 76% 29.97 in 10.0 mi North 5.8 mph - N/A   Overcast
6:55 AM 59.0 °F 51.8 °F 77% 29.98 in 10.0 mi North 6.9 mph - N/A   Overcast
7:15 AM 59.0 °F 52.0 °F 78% 30.00 in 10.0 mi North 6.9 mph - N/A   Overcast
7:59 AM 59.4 °F 52.0 °F 77% 30.02 in 10.0 mi North 9.2 mph - N/A   Overcast
8:16 AM 59.4 °F 50.9 °F 74% 30.02 in 10.0 mi North 8.1 mph - N/A   Overcast
8:35 AM 59.5 °F 50.7 °F 73% 30.03 in 10.0 mi North 5.8 mph - N/A   Overcast
8:36 AM 59.5 °F 50.7 °F 73% 30.04 in 10.0 mi North 8.1 mph - N/A   Overcast
8:55 AM 59.0 °F 51.3 °F 75% 30.04 in 10.0 mi North 4.6 mph - N/A   Overcast
8:56 AM 59.0 °F 51.3 °F 75% 30.04 in 10.0 mi NNE 4.6 mph - N/A   Overcast
9:15 AM 59.4 °F 51.3 °F 75% 30.05 in 10.0 mi North 8.1 mph - N/A   Overcast
9:20 AM 59.5 °F 50.9 °F 73% 30.05 in 10.0 mi North 6.9 mph - N/A   Overcast
9:38 AM 59.5 °F 51.1 °F 74% 30.06 in 10.0 mi North 6.9 mph - N/A   Overcast
9:56 AM 59.5 °F 51.3 °F 74% 30.07 in 10.0 mi North 9.2 mph - N/A   Overcast
10:15 AM 60.1 °F 51.6 °F 74% 30.07 in 10.0 mi North 8.1 mph - N/A   Overcast
10:16 AM 60.3 °F 51.8 °F 74% 30.07 in 10.0 mi North 10.4 mph - N/A   Overcast
10:35 AM 59.9 °F 51.4 °F 74% 30.08 in 10.0 mi North 5.8 mph - N/A   Overcast
10:59 AM 60.4 °F 51.8 °F 73% 30.09 in 10.0 mi North 9.2 mph - N/A   Overcast
11:17 AM 59.9 °F 52.0 °F 75% 30.09 in 10.0 mi North 9.2 mph - N/A   Overcast
11:35 AM 59.4 °F 51.4 °F 75% 30.10 in 10.0 mi North 9.2 mph - N/A   Overcast
11:36 AM 59.4 °F 51.4 °F 75% 30.10 in 10.0 mi North 9.2 mph - N/A   Overcast
11:55 AM 59.5 °F 51.4 °F 75% 30.11 in 10.0 mi NNE 5.8 mph - N/A   Overcast
11:56 AM 59.5 °F 51.4 °F 75% 30.11 in 10.0 mi North 4.6 mph - N/A   Overcast
12:15 PM 61.0 °F 51.6 °F 71% 30.11 in 10.0 mi North 9.2 mph - N/A   Overcast
12:38 PM 61.0 °F 50.9 °F 69% 30.11 in 10.0 mi North 10.4 mph - N/A   Overcast
12:56 PM 61.7 °F 50.9 °F 68% 30.12 in 10.0 mi NNW 6.9 mph - N/A   Overcast
1:15 PM 62.4 °F 50.7 °F 66% 30.12 in 10.0 mi NNW 8.1 mph 16.1 mph N/A   Mostly Cloudy
1:16 PM 62.8 °F 50.9 °F 65% 30.12 in 10.0 mi North 9.2 mph - N/A   Mostly Cloudy
1:35 PM 62.8 °F 50.5 °F 64% 30.13 in 10.0 mi NW 6.9 mph - N/A   Scattered Clouds
1:36 PM 63.1 °F 51.1 °F 65% 30.13 in 10.0 mi WNW 8.1 mph - N/A   Scattered Clouds
1:59 PM 64.2 °F 50.2 °F 60% 30.13 in 10.0 mi NW 10.4 mph 17.3 mph N/A   Scattered Clouds
2:17 PM 64.4 °F 50.2 °F 60% 30.13 in 10.0 mi WNW 10.4 mph - N/A   Scattered Clouds
2:35 PM 64.4 °F 50.4 °F 60% 30.13 in 10.0 mi NW 9.2 mph - N/A   Scattered Clouds
2:36 PM 64.6 °F 50.4 °F 60% 30.13 in 10.0 mi NW 9.2 mph - N/A   Scattered Clouds
2:55 PM 63.9 °F 48.7 °F 58% 30.13 in 10.0 mi NNW 13.8 mph - N/A   Scattered Clouds
2:56 PM 63.7 °F 48.9 °F 59% 30.13 in 10.0 mi NNW 10.4 mph 16.1 mph N/A   Scattered Clouds
3:15 PM 63.7 °F 49.5 °F 60% 30.14 in 10.0 mi NW 8.1 mph 18.4 mph N/A   Scattered Clouds
3:20 PM 64.0 °F 50.0 °F 60% 30.14 in 10.0 mi NNW 10.4 mph 18.4 mph N/A   Scattered Clouds
3:38 PM 63.9 °F 49.5 °F 59% 30.14 in 10.0 mi NW 13.8 mph 18.4 mph N/A   Scattered Clouds
3:56 PM 63.3 °F 49.3 °F 60% 30.14 in 10.0 mi NNW 8.1 mph - N/A   Scattered Clouds
4:15 PM 63.3 °F 49.1 °F 60% 30.14 in 10.0 mi NNW 10.4 mph - N/A   Scattered Clouds
4:35 PM 63.3 °F 49.5 °F 61% 30.14 in 10.0 mi NNW 10.4 mph - N/A   Scattered Clouds
4:36 PM 63.3 °F 49.3 °F 60% 30.14 in 10.0 mi NNW 8.1 mph - N/A   Scattered Clouds
4:59 PM 63.0 °F 48.7 °F 60% 30.15 in 10.0 mi North 9.2 mph 16.1 mph N/A   Clear
5:17 PM 63.0 °F 48.4 °F 59% 30.14 in 10.0 mi NNW 8.1 mph - N/A   Clear
5:35 PM 62.6 °F 44.4 °F 51% 30.15 in 10.0 mi NNW 9.2 mph - N/A   Clear
5:55 PM 62.6 °F 44.2 °F 51% 30.14 in 10.0 mi NNW 9.2 mph - N/A   Clear
5:56 PM 62.6 °F 44.4 °F 51% 30.14 in 10.0 mi North 9.2 mph - N/A   Clear
6:15 PM 62.6 °F 45.3 °F 53% 30.14 in 10.0 mi North 5.8 mph - N/A   Clear
6:20 PM 62.4 °F 45.7 °F 54% 30.14 in 10.0 mi North 5.8 mph - N/A   Clear
6:38 PM 61.9 °F 45.9 °F 56% 30.14 in 10.0 mi North 8.1 mph - N/A   Clear
6:56 PM 61.2 °F 45.7 °F 57% 30.14 in 10.0 mi North 6.9 mph - N/A   Clear
7:15 PM 60.1 °F 46.8 °F 61% 30.15 in 10.0 mi NNW 3.5 mph - N/A   Clear
7:16 PM 60.1 °F 46.9 °F 62% 30.15 in 10.0 mi NNW 3.5 mph - N/A   Clear
7:35 PM 58.8 °F 47.5 °F 66% 30.15 in 10.0 mi NNW 4.6 mph - N/A   Clear
7:59 PM 57.0 °F 48.6 °F 73% 30.15 in 10.0 mi Calm Calm - N/A   Clear
8:17 PM 55.6 °F 49.1 °F 79% 30.15 in 10.0 mi Calm Calm - N/A   Clear
8:35 PM 53.6 °F 49.3 °F 85% 30.15 in 10.0 mi Calm Calm - N/A   Clear
8:36 PM 53.2 °F 49.3 °F 86% 30.15 in 10.0 mi Calm Calm - N/A   Clear
8:55 PM 51.4 °F 49.5 °F 93% 30.16 in 10.0 mi Calm Calm - N/A   Clear
9:15 PM 51.1 °F 49.3 °F 94% 30.16 in 10.0 mi Calm Calm - N/A   Clear
9:38 PM 50.4 °F 49.3 °F 96% 30.16 in 10.0 mi Calm Calm - N/A   Clear
9:56 PM 49.5 °F 48.2 °F 95% 30.16 in 10.0 mi Calm Calm - N/A   Clear
10:15 PM 48.7 °F 47.7 °F 96% 30.16 in 10.0 mi Calm Calm - N/A   Clear
10:16 PM 48.9 °F 47.8 °F 96% 30.16 in 10.0 mi Calm Calm - N/A   Clear
10:35 PM 48.9 °F 47.8 °F 96% 30.16 in 10.0 mi Calm Calm - N/A   Clear
10:36 PM 48.9 °F 47.7 °F 95% 30.16 in 10.0 mi Calm Calm - N/A   Clear
10:59 PM 47.8 °F 46.6 °F 95% 30.16 in 10.0 mi Calm Calm - N/A   Clear
11:17 PM 46.8 °F 45.5 °F 95% 30.16 in 10.0 mi Calm Calm - N/A   Clear
11:35 PM 47.1 °F 45.9 °F 95% 30.16 in 10.0 mi Calm Calm - N/A   Clear
11:55 PM 46.2 °F 45.0 °F 95% 30.16 in 1.0 mi Calm Calm - N/A   Mist